Погода Razgrad

Погода Razgrad : погода сейчас, прогноз погоды и архив. Всё, что Вы хотите узнать о погоде Razgrad!

Поиск расширенной информации на нашем сайте:

Другие новости

Новости СМИ2

Главная страница сайта

Новости сайта

03.07.2017

Напоминаем, что на нашем специализированном сайте Метеоцентр.Азия вы можете получить высокодетализированные автоматические прогнозы погоды по пунктам России, СНГ и мира в авиационном формате (включающие направление и скорость ветра, видимость, явления погоды, количество и форму облачности, нижнюю и верхнюю границу облачности).


Погода Razgrad - сегодня

Время (UTC), дата Ветер
(°,м/с) 
Видим.   Явления Облачность Т
(°С)
Тd
(°С)
f(%) Тe
(°С)
Pmin
(гПа)
dP
(гПа)
Po
(мм)
O2
(г/м3)
Тmin Tmax R s Состояние
почвы
03 12.12.17 140 (ЮВ) 20000 м    ясно 
+5.6 -2.6 56 +5  1015.9  -0.4  731  289  +5  +8.4       
06 12.12.17 140 (ЮВ) 20000 м    3/0 верхняя 
[Ci sp]
+5.6 -2.3 57 +5  1016.2  0.3  731  289  +5  +8.4       
09 12.12.17 160 (Ю) 20000 м    4/0 верхняя 
[Ci fib]
+12.1 +1.1 47 +12  1016.2  0.9  731  282  +5.5  +12.5       
12 12.12.17 230 (ЮЗ) 20000 м    4/0 верхняя 
[Ci fib]
+16.8 +3.1 40 +18  1014.8  -0.7  731  277  +5.5  +17.7       
15 12.12.17 тихо ()   20000 м    3/0 верхняя 
[Ci fib]
+14 +4.7 53 +14  1015.5  0.3  731  279  +5.5  +17.7       
18 12.12.17 160 (Ю) 20000 м    ясно 
+9.7 +3.3 64 +11  1017.2  1.1  732  284  +5.5  +17.7       
21 12.12.17 тихо ()   20000 м    ясно 
+9.1 +3.7 69 +9  1017.5  0.2  732  285  +8.9  +9.8       
00 13.12.17 тихо ()   20000 м    ясно 
+8.8 +3.6 70 +9  1017.5  -0.1  732  285  +8.4  +9.8       
03 13.12.17 тихо ()   20000 м    ясно 
+7.8 +2.4 69 +8  1017  -0.6  732  286  +7.3  +9.8       
06 13.12.17 тихо ()   20000 м    4/0 верхняя 
[Ci fib]
+8.1 +2.7 69 +8  1017.2  0.2  732  286  +7.2  +9.8       
09 13.12.17 200 (Ю) 20000 м    8/5 600 м средняя, верхняя 
[Cu med, cong|Ac lent|Ci fib]
+11.8 +5.4 65 +13  1016.6  732  282  +8  +12.5       
12 13.12.17 200 (Ю) 20000 м    8/6 600 м средняя 
[Sc|Ac lent]
+15.2 +6.3 55 +17  1015.1  -1  731  278  +8  +15.6       
15 13.12.17 160 (Ю) 20000 м    8/6 600 м средняя 
[Sc|Ac lent]
+12.2 +5.9 65 +13  1014.7  -0.8  730  281  +8  +16.4       
18 13.12.17 140 (ЮВ) 20000 м    8/8 600 м 
[Sc]
+10.5 +6.3 75 +11  1014.1  -0.8  730  282  +8  +16.4       
21 13.12.17 140 (ЮВ) 20000 м    8/8 600 м 
[Sc]
+9.7 +5.9 77 +10  1012.6  -1.5  729  283  +9.4  +10.6       
00 14.12.17 290 (З) 20000 м    8/8 600 м 
[Sc]
+9 +6.2 83 +9  1012.5  -0.2  728  283  +8.3  +10.6       
03 14.12.17 250 (З) 16000 м  слаб. дождь  10/10 600 м 
[Ns]
+5.7 +5.3 97 +5  1012.6  -0.4  728  286  +5.6  +10.6       
06 14.12.17 тихо ()   16000 м  {дождь}  8/8 600 м 
[Sc]
+5 +4.5 97 +5  1013  0.3  728  287    +10.6  0.2     
09 14.12.17 200 (Ю) 20000 м    ясно 
+8.8 +5.1 78 +9  1012.9  0.4  729  284  +4.9  +9       
12 14.12.17 230 (ЮЗ) 20000 м    ясно 
+13.3 +5.1 58 +14  1010.5  -1.6  728  279  +4.9  +14       
15 14.12.17 тихо ()   20000 м    8/0 средняя 
[Ac und]
+10 +4.8 70 +10  1011  728  282  +4.9  +14       
18 14.12.17 тихо ()   20000 м    10/10 600 м 
[St]
+9.6 +6.2 79 +10  1011.4  0.3  728  282  +4.9  +14       
21 14.12.17 270 (З) 20000 м    9/9 600 м 
[Sc]
+8.3 +4.8 79 +9  1011.5  -0.1  728  284  +8  +9.7       
00 15.12.17 тихо ()   20000 м    ясно 
+7.2 +4.5 83 +7  1011.2  -0.4  727  285  +6.7  +9.7       
03 15.12.17 140 (ЮВ) 20000 м    ясно 
+5.7 +4.8 94 +5  1011.2  -0.3  727  286  +5.5  +9.7       
Время (UTC), дата Ветер
(°,м/с) 
Видим.   Явления Облачность Т
(°С)
Тd
(°С)
f(%) Тe
(°С)
Pmin
(гПа)
dP
(гПа)
Po
(мм)
O2
(г/м3)
Тmin Tmax R s Состояние
почвы

Для получения пояснительной информации подведите курсор к названию столбца.

ПОГОДА Razgrad - архив

Всё, что Вы хотите узнать о погоде Razgrad - удобно и подробно!

Выберите нужную дату (начиная с 1 января 2015* года) и нажмите кнопку "Найти".
Будут отображены архивные сводки погоды по пункту Razgrad, начиная с указанной даты.


Отображать данные в формате CSV (для использования в таблицах Excel)


Внимание! Наш архив погоды предназначен исключительно для личного некоммерческого использования в познавательных целях. Если Вам необходимы официальные справки о состоянии погоды (для производственных, юридических, коммерческих и т.п. целей), обращайтесь в органы Росгидромета.

*Примечание: данная дата относится к архиву по метеостанциям СССР (Россия, СНГ, Балтия).
Архив по метеостанциям Зарубежной Европы и Азии (кроме Китая) хранится 10 дней, по другим регионам земного шара (Китай, Африка, Америка, Австралия, Океания) - 1 день.

Razgrad - район местоположения метеостанции


Название, широта, долгота, высота метеостанции:
Razgrad 43.5°ш. 26.5°д. 347 м над ур. моря [Bulgaria]

Дополнительная информация

В oтличие oт бoльшинства пoгoдных сайтoв мы публикуем пoдрoбную метеoинфoрмацию в детальнoм прoфессиoнальнoм фoрмате.

Характеристики температуры и влажнoсти вoздуха измеряются на высoте 2 м в тени вдали oт зданий и деревьев.
Скoрoсть ветра измеряется на высoте 10 м (на урoвне рoста челoвека скoрoсть ветра ниже в 1.5-2 раза). Если метеoстанция нахoдится в гoрoде или в лесу, тo скoрoсть ветра занижена на 2-4 м/с пo сравнению с oткрытым местoм. Скoрoсть ветра над акватoриями крупных рек и oзёр, а также на вершинах хoлмoв на 2-5 м/с выше, чем в oбычных услoвиях.
Атмoсфернoе давление в разных тoчках местнoсти мoжет значительнo oтличаться oт давления на метеoстанции, в зависимoсти oт услoвий рельефа (при пoдъёме на 10 м давление пoнижается примернo на 1 мм рт.ст.).